Find Starlink 37469

NORAD ID: 69168 Int'l Des: 2026-111 Owner: SPXS Country: US Constellation: starlink operational
LEOCIRCULAR

現在のビュー

3D地球を読み込み中...

About Starlink 37469

Starlink 37469 (NORAD 69168) is a starlink constellation satellite (v2 mini) launched May 21, 2026 by SPXS of US. It operates in LEO, CIRCULAR orbit with a mass of 575.00 kg.

次回通過

Passes for default location (London). Set your location on the main map for personalized predictions.

高度履歴

Loading altitude history...

軌道要素

1 69168U 26111W 26228.28272184 .00008037 00000-0 24875-3 0 9992
2 69168 53.1573 230.2650 0001179 80.7644 279.3492 15.34400883 13490
Epoch: Aug 16, 2026 • Age: 21 hours

現在のステータス

高度 477.1 km
遠地点 / 近地点 N/A
速度 7.63 km/s
衛星直下点 -41.27°S, 59.46°E
打ち上げ日 May 21, 2026
運用期間 0.2 years
タイプ internet

技術仕様

分類 Payload
質量 575.00 kg
乾燥質量 530.00 kg
総質量 575.00 kg
長さ 0.30 m
直径 4.10 m
スパン 29.00 m
形状 Box + pan
製造者 SPXS
バスタイプ Starlink V2MO
フェーズステータス In Orbit
所有者/国 SPXS/US

Most Searched